Temp
63 63 63 62 63 63 63 64 64 64 64 64 64 64 64 64 65 70 82 88 82 82 84 86 87 80 80 72 75 80 66 64 69 72 75 83 80 85 87 81 84 86 82 82 84
62 62 62 62 62 63 63 63 63 64 64 64 64 64 64 64 72 80 88 83 83 82 88 84 81 80 72 73 71 70 62 72 80 78 77 83 84 82 80 80 79 81 85 85 84
62 62 62 62 62 62 63 63 63 63 63 63 64 64 64 65 78 86 83 82 83 82 91 90 87 81 74 77 76 75 64 74 84 86 85 83 82 86 79 74 79 77 81 83 83
61 61 61 62 62 62 62 62 62 62 63 63 64 65 65 69 73 90 83 82 82 87 88 86 83 77 77 77 86 78 81 82 86 86 84 83 84 80 80 80 85 85 84 84 82
61 61 61 61 61 61 62 62 61 62 62 64 65 65 69 74 82 89 84 83 84 85 84 82 79 79 76 84 85 81 82 85 85 84 87 88 83 79 81 85 87 87 85 82 83
60 60 60 61 61 61 61 61 60 61 62 64 66 66 70 72 93 88 88 86 87 85 85 84 83 89 85 86 83 84 85 84 82 81 86 83 82 82 82 86 85 85 81 82 82
60 60 60 60 60 61 60 60 60 61 63 64 66 73 72 81 95 89 89 89 90 90 86 94 93 88 83 84 88 83 78 79 78 78 78 80 75 76 83 85 82 83 82 84 83
60 60 60 60 60 60 59 59 60 62 64 66 68 68 74 93 92 91 89 92 94 93 91 95 91 87 86 87 84 80 76 68 78 77 79 75 66 78 84 82 80 82 83 84 82
59 60 60 60 59 58 57 58 61 64 66 67 63 66 75 93 92 95 93 93 93 93 95 104 88 81 84 78 73 75 65 68 74 81 79 72 68 80 84 81 79 81 82 83 81
59 59 59 59 58 57 56 58 63 65 69 77 82 69 80 88 90 95 95 96 91 91 91 87 79 74 73 70 62 67 67 71 69 77 79 72 72 80 83 82 80 80 81 80 80
59 59 58 58 57 56 53 64 69 67 65 73 73 78 87 90 93 89 95 91 89 83 73 79 72 67 74 75 80 77 74 73 75 79 75 73 74 78 82 82 80 78 79 79 80
59 59 58 58 57 56 51 63 73 76 68 79 81 82 88 86 85 91 93 84 78 74 76 73 67 80 80 82 80 80 73 71 76 79 73 71 75 80 82 82 82 81 80 81 81
59 58 57 57 56 53 59 70 79 82 65 77 79 79 83 86 84 85 89 83 78 73 73 67 77 86 84 79 78 70 69 73 73 75 76 71 67 74 82 84 84 85 84 84 82
59 58 56 54 60 59 67 75 79 80 57 67 73 82 85 87 80 94 91 87 78 76 77 73 82 82 78 77 74 62 79 81 79 68 61 73 56 67 76 79 81 83 83 84 84
59 58 56 54 51 62 77 77 81 75 47 77 74 87 86 82 78 82 91 83 79 78 74 73 78 78 73 78 80 76 79 75 75 66 61 66 61 64 72 74 78 82 83 85 86
58 57 57 54 50 61 69 76 75 59 51 72 80 77 75 73 78 83 85 84 85 76 72 75 82 79 79 82 80 84 76 71 64 61 55 62 62 60 68 77 76 79 83 84 79
57 55 55 60 65 68 74 70 56 49 72 72 72 73 72 72 74 75 75 74 70 60 62 72 77 79 81 72 79 76 62 54 54 53 54 55 64 65 75 79 81 78 79 79 76
55 53 53 58 57 66 67 62 46 64 65 74 71 69 70 70 72 74 70 69 69 67 59 60 62 73 80 76 72 65 64 55 48 50 57 63 59 68 77 79 80 78 75 79 78
53 52 54 60 60 65 62 49 53 61 75 72 70 64 63 71 72 68 69 68 74 71 65 57 63 77 82 79 79 67 62 67 59 50 55 57 65 77 77 74 77 78 80 78 78
50 54 60 70 67 65 57 50 58 71 76 72 61 67 63 68 66 66 66 74 74 77 74 67 61 70 80 79 76 74 75 63 57 51 46 57 58 62 68 71 76 77 77 78 80
52 57 67 73 70 60 51 52 64 75 78 69 64 65 68 66 68 63 70 77 82 78 75 69 63 69 72 71 69 69 64 62 60 56 52 50 58 68 71 74 75 77 78 77 75
50 53 71 80 58 51 51 59 64 71 74 72 72 69 71 70 65 66 70 77 84 82 73 73 61 59 71 75 75 75 67 63 58 58 52 55 59 74 75 78 78 77 78 78 76
47 53 72 74 53 51 56 65 69 71 71 71 72 73 72 66 62 69 73 87 85 78 74 73 60 57 62 68 71 68 72 66 60 55 54 54 59 76 75 75 77 77 78 77 77
49 50 61 64 60 60 56 60 63 76 74 76 75 72 69 66 66 70 71 83 85 82 75 75 60 61 59 64 66 66 73 70 63 57 54 57 62 66 71 74 75 76 78 77 76
50 52 59 54 58 60 58 62 66 65 73 70 70 74 70 59 66 66 71 77 80 74 75 73 65 62 64 70 71 73 75 74 64 64 62 63 67 68 71 73 74 76 78 79 77
50 52 57 55 59 59 58 65 66 69 68 69 66 76 72 66 69 68 69 65 70 72 68 68 64 60 62 72 70 72 77 76 75 71 68 70 68 73 75 74 74 75 77 76 77
55 57 53 52 59 58 58 64 68 71 74 77 76 73 70 76 78 78 75 74 77 70 68 69 64 59 58 63 69 64 71 72 71 71 73 66 71 73 71 77 74 74 76 76 77
MSLP
1018.55 1018.15 1017.82 1017.52 1017.23 1016.87 1016.40 1016.11 1015.92 1015.51 1015.03 1014.60 1014.02 1013.52 1013.18 1012.59 1011.84 1012.39 1011.03 1009.27 1009.54 1010.17 1011.03 1011.77 1012.54 1013.37 1013.69 1013.86 1013.78 1013.24 1013.01 1011.91 1010.86 1010.42 1010.13 1009.70 1009.87 1010.94 1010.88 1011.34 1011.91 1011.80 1012.37 1013.69 1014.90
1018.61 1018.31 1017.80 1017.50 1017.10 1016.77 1016.48 1016.03 1015.81 1015.51 1015.05 1014.60 1013.98 1013.35 1013.00 1012.55 1011.80 1010.51 1008.60 1008.86 1008.93 1009.73 1010.46 1011.03 1012.10 1012.76 1013.36 1013.40 1013.60 1013.39 1012.34 1010.71 1009.64 1009.55 1009.63 1009.46 1009.65 1010.57 1011.35 1011.76 1012.11 1012.34 1012.84 1013.93 1014.73
1018.63 1018.31 1017.95 1017.37 1017.04 1016.57 1016.25 1016.04 1015.76 1015.47 1015.07 1014.59 1014.05 1013.36 1012.81 1012.62 1011.65 1008.96 1008.58 1008.71 1008.95 1009.35 1009.74 1009.83 1011.16 1011.76 1012.02 1011.87 1011.75 1011.94 1012.72 1010.57 1009.37 1008.94 1008.70 1009.13 1009.62 1010.03 1011.03 1012.05 1011.60 1012.03 1012.70 1013.86 1014.51
1018.77 1018.33 1017.90 1017.52 1016.90 1016.54 1016.00 1015.77 1015.60 1015.36 1015.05 1014.62 1014.11 1013.46 1012.80 1012.50 1010.63 1008.09 1008.53 1009.01 1009.22 1009.49 1009.65 1009.87 1010.43 1011.38 1010.96 1010.19 1009.09 1009.25 1010.76 1009.63 1009.32 1009.33 1009.10 1009.12 1009.70 1010.59 1010.90 1011.37 1011.68 1011.93 1012.46 1013.48 1014.19
1018.67 1018.43 1017.84 1017.47 1017.00 1016.47 1015.95 1015.49 1015.33 1015.17 1014.84 1014.49 1014.09 1013.54 1012.67 1011.72 1009.28 1007.50 1007.87 1009.04 1009.72 1010.08 1009.68 1009.67 1009.74 1009.68 1009.11 1008.36 1008.02 1008.52 1009.30 1009.28 1009.42 1008.82 1008.80 1009.31 1009.90 1010.31 1011.01 1011.48 1011.96 1012.21 1012.62 1013.29 1013.78
1018.69 1018.34 1017.99 1017.36 1016.94 1016.42 1015.98 1015.31 1014.99 1014.76 1014.59 1014.25 1013.83 1013.46 1012.80 1010.55 1007.15 1007.27 1007.56 1008.31 1008.67 1009.32 1009.22 1009.46 1008.47 1007.84 1007.27 1007.82 1007.14 1007.92 1008.73 1009.49 1010.03 1009.02 1008.81 1009.39 1010.30 1010.67 1011.44 1011.61 1012.14 1012.49 1012.80 1013.03 1013.48
1018.58 1018.23 1017.78 1017.38 1016.80 1016.25 1015.76 1015.31 1014.64 1014.29 1014.15 1013.98 1013.67 1013.26 1012.06 1008.67 1007.01 1007.39 1007.41 1007.21 1006.81 1007.03 1007.29 1006.51 1006.11 1006.60 1006.88 1007.66 1007.85 1008.24 1008.89 1009.73 1010.18 1010.09 1010.14 1010.20 1010.94 1011.31 1011.61 1011.75 1012.14 1012.70 1012.99 1013.12 1013.10
1018.48 1018.12 1017.66 1017.17 1016.67 1016.12 1015.39 1014.77 1014.28 1013.88 1013.62 1013.58 1013.45 1012.99 1010.74 1007.06 1006.94 1007.26 1007.23 1006.75 1006.23 1006.15 1006.21 1005.62 1005.66 1006.24 1006.64 1007.24 1008.20 1008.79 1009.40 1009.87 1010.20 1010.39 1010.46 1010.76 1011.45 1011.52 1011.69 1011.84 1012.25 1012.51 1012.78 1012.95 1012.94
1018.53 1017.97 1017.55 1017.10 1016.54 1015.89 1015.10 1014.14 1013.45 1013.12 1013.20 1013.31 1013.28 1012.51 1009.85 1006.92 1006.68 1006.18 1006.52 1006.47 1005.90 1005.68 1005.36 1005.02 1005.30 1005.91 1006.79 1007.68 1008.68 1008.77 1009.18 1009.78 1010.01 1010.26 1010.44 1011.23 1011.49 1011.43 1011.35 1011.63 1012.05 1012.17 1012.45 1012.59 1012.61
1018.50 1017.86 1017.32 1016.91 1016.47 1015.77 1014.56 1013.56 1012.67 1012.62 1012.79 1012.83 1012.38 1012.02 1008.86 1006.74 1006.00 1005.82 1005.75 1005.95 1006.25 1006.12 1005.90 1005.71 1006.39 1006.64 1006.88 1007.49 1008.05 1008.14 1008.66 1009.19 1009.27 1009.61 1010.19 1010.71 1010.50 1010.70 1010.94 1011.21 1011.54 1011.81 1012.04 1012.31 1012.43
1018.41 1017.77 1017.14 1016.69 1016.25 1015.91 1014.63 1013.19 1013.06 1012.73 1012.17 1010.98 1010.46 1009.20 1007.51 1006.43 1005.75 1005.73 1005.60 1005.89 1006.13 1006.59 1007.14 1007.03 1007.67 1007.75 1006.84 1006.70 1006.41 1006.59 1007.16 1007.92 1008.31 1008.78 1009.05 1009.60 1009.82 1010.03 1010.38 1010.67 1011.13 1011.59 1011.62 1011.84 1012.02
1018.29 1017.63 1016.97 1016.40 1015.94 1015.77 1015.87 1014.27 1011.70 1011.17 1010.85 1009.45 1009.07 1008.60 1007.11 1007.00 1006.77 1005.64 1005.57 1006.49 1006.67 1007.21 1007.44 1007.93 1007.76 1006.42 1006.14 1005.63 1005.15 1005.91 1006.25 1007.20 1007.75 1008.54 1009.02 1009.30 1009.49 1009.53 1009.69 1009.55 1009.76 1010.33 1010.94 1011.13 1011.61
1018.20 1017.51 1016.81 1016.00 1015.35 1015.31 1014.67 1012.57 1010.24 1010.90 1010.64 1008.50 1007.67 1007.38 1006.77 1006.39 1006.22 1005.60 1005.66 1006.22 1006.78 1007.44 1007.75 1008.28 1006.70 1005.86 1005.52 1004.86 1005.10 1005.68 1005.92 1006.69 1007.17 1008.05 1008.99 1009.43 1009.87 1009.69 1009.19 1009.11 1009.45 1009.71 1010.08 1010.48 1010.81
1017.98 1017.53 1016.91 1015.78 1015.13 1014.89 1013.29 1010.80 1010.48 1010.67 1010.90 1008.25 1006.98 1005.61 1005.76 1005.84 1005.61 1004.95 1005.26 1006.09 1006.74 1007.16 1007.36 1007.28 1005.81 1005.27 1004.83 1004.63 1005.04 1005.43 1005.53 1006.06 1006.89 1008.50 1009.04 1009.02 1009.81 1009.37 1008.91 1008.85 1009.06 1009.49 1009.78 1010.11 1010.44
1017.83 1017.37 1016.92 1016.82 1016.08 1014.58 1011.81 1010.87 1010.02 1010.42 1010.39 1006.67 1005.93 1004.21 1004.81 1005.59 1005.35 1004.73 1004.90 1005.68 1006.31 1006.73 1007.41 1006.69 1006.12 1005.48 1004.61 1004.38 1004.70 1005.32 1005.47 1006.22 1006.91 1008.02 1008.76 1009.03 1009.35 1008.66 1008.70 1008.79 1008.72 1008.94 1009.18 1009.80 1010.65
1017.37 1017.07 1016.77 1016.50 1016.11 1013.18 1011.85 1010.70 1010.21 1011.02 1008.97 1006.08 1004.99 1004.87 1005.53 1005.50 1005.49 1005.17 1005.31 1005.55 1005.82 1006.68 1006.99 1006.69 1005.61 1005.11 1004.41 1004.15 1004.55 1004.91 1005.70 1006.78 1007.88 1008.89 1009.96 1009.10 1009.16 1008.99 1008.19 1007.30 1008.14 1009.04 1009.85 1010.84 1011.68
1016.65 1016.54 1016.81 1016.14 1013.93 1012.36 1011.67 1011.32 1011.86 1011.05 1007.70 1006.18 1005.34 1005.18 1005.53 1006.00 1005.89 1005.95 1006.11 1006.12 1006.74 1007.59 1007.79 1006.98 1005.90 1004.78 1004.13 1004.45 1004.77 1005.67 1007.50 1009.27 1009.98 1010.46 1010.43 1009.10 1008.92 1008.11 1006.96 1006.78 1007.58 1009.15 1010.23 1010.47 1010.87
1015.81 1015.31 1014.72 1014.04 1012.95 1012.91 1012.68 1012.87 1012.25 1009.40 1007.64 1005.89 1005.54 1005.71 1006.36 1006.24 1006.17 1006.33 1006.61 1006.88 1007.02 1007.59 1008.55 1008.18 1006.58 1005.06 1004.36 1004.59 1005.48 1006.48 1008.12 1009.78 1010.71 1011.19 1010.49 1009.25 1008.88 1007.88 1006.83 1006.85 1007.52 1009.66 1009.93 1010.32 1010.30
1015.15 1014.43 1014.12 1011.80 1012.38 1013.38 1013.58 1013.50 1011.52 1009.24 1007.29 1006.68 1005.89 1006.57 1006.66 1006.36 1006.12 1006.52 1006.84 1007.11 1006.81 1007.05 1008.13 1008.11 1006.82 1005.21 1004.34 1004.28 1005.10 1006.34 1007.61 1008.24 1009.56 1010.68 1010.76 1010.19 1009.16 1008.30 1008.02 1008.13 1008.16 1008.80 1010.28 1010.27 1010.27
1015.79 1014.80 1012.49 1010.24 1011.57 1012.90 1013.64 1013.01 1010.85 1008.66 1007.68 1006.88 1006.67 1006.11 1006.37 1005.96 1006.37 1006.52 1006.71 1005.96 1006.26 1006.09 1006.22 1007.42 1007.22 1005.19 1004.17 1004.29 1004.80 1005.43 1006.31 1008.08 1009.36 1010.78 1011.52 1010.97 1009.94 1009.52 1009.05 1008.80 1008.68 1009.08 1010.22 1010.32 1010.01
1015.95 1014.68 1010.16 1009.62 1010.94 1012.73 1013.38 1012.13 1009.90 1008.33 1007.77 1007.20 1006.77 1006.73 1005.98 1005.84 1005.65 1005.87 1005.62 1004.90 1004.65 1004.99 1005.72 1006.68 1007.14 1006.22 1005.31 1004.94 1005.02 1005.57 1006.41 1007.88 1009.35 1010.14 1010.93 1011.49 1010.14 1008.59 1008.71 1008.55 1008.66 1008.99 1009.72 1010.01 1009.64
1016.73 1014.71 1009.82 1009.31 1011.38 1012.39 1012.63 1011.02 1009.63 1008.15 1007.70 1007.42 1006.22 1005.80 1005.21 1005.07 1005.02 1005.09 1004.79 1003.79 1002.90 1003.62 1005.36 1005.84 1006.98 1007.04 1006.27 1004.64 1004.54 1005.12 1005.90 1007.24 1009.06 1010.11 1010.64 1010.31 1009.56 1008.37 1008.10 1008.00 1008.23 1008.84 1009.34 1009.85 1009.71
1017.64 1014.70 1009.99 1009.81 1011.16 1012.32 1011.60 1010.44 1009.48 1008.48 1007.47 1007.11 1006.07 1005.18 1004.93 1004.83 1004.80 1004.45 1003.35 1002.05 1002.07 1002.89 1003.66 1004.92 1006.31 1007.09 1006.39 1005.79 1004.78 1004.80 1005.12 1005.90 1007.85 1008.95 1010.13 1010.19 1009.70 1008.59 1008.18 1008.35 1008.41 1008.57 1008.96 1009.74 1010.10
1018.09 1015.68 1012.12 1011.25 1010.67 1011.07 1011.28 1010.26 1009.10 1007.47 1006.66 1006.12 1005.54 1004.94 1004.54 1004.29 1004.24 1003.76 1003.08 1001.89 1001.31 1001.97 1002.50 1003.49 1005.82 1006.52 1006.63 1005.61 1005.49 1005.43 1004.91 1005.26 1006.82 1008.44 1009.51 1009.47 1009.31 1009.32 1008.90 1008.75 1008.80 1008.76 1008.80 1009.53 1010.06
1017.84 1016.04 1013.65 1012.74 1011.73 1011.48 1010.91 1009.81 1008.73 1007.84 1006.05 1005.28 1004.92 1004.57 1004.25 1004.30 1004.10 1003.63 1002.98 1002.22 1001.69 1001.57 1002.61 1003.25 1005.39 1006.00 1005.97 1005.56 1005.29 1005.00 1004.62 1005.13 1006.10 1006.81 1007.76 1008.65 1008.78 1008.96 1008.55 1008.62 1008.68 1008.61 1008.79 1009.50 1010.14
1017.90 1016.71 1015.05 1013.83 1012.39 1011.57 1010.57 1008.92 1008.29 1007.25 1006.94 1005.43 1004.82 1003.72 1003.45 1003.72 1003.83 1003.67 1003.29 1003.07 1002.52 1002.09 1002.69 1003.66 1005.10 1005.65 1005.77 1005.12 1005.09 1004.66 1003.62 1004.07 1004.87 1005.74 1006.19 1007.12 1007.91 1007.56 1007.70 1008.07 1008.60 1008.69 1008.86 1009.43 1009.85
1018.08 1017.10 1016.54 1014.24 1012.91 1011.83 1010.53 1009.47 1007.92 1007.20 1005.80 1004.88 1004.38 1003.52 1002.97 1002.80 1002.57 1002.64 1002.59 1002.71 1002.69 1003.10 1003.19 1004.15 1005.32 1006.60 1006.45 1005.90 1005.27 1004.43 1003.35 1003.28 1003.98 1004.41 1005.30 1006.53 1006.43 1007.20 1008.10 1008.14 1008.40 1008.95 1009.06 1009.54 1009.91
Wind_Speed
14 15 15 15 15 15 16 16 15 16 16 16 17 17 16 16 15 6 5 8 10 18 10 12 12 12 3 2 3 3 2 5 8 5 4 3 17 10 10 21 12 3 7 17 23
14 15 16 16 16 16 15 16 16 16 16 16 17 18 16 15 4 4 4 17 21 16 12 12 12 7 6 7 5 4 2 7 6 5 4 3 19 17 11 15 13 15 7 24 23
15 15 15 17 16 17 17 16 16 16 16 16 16 18 17 12 4 6 18 14 18 12 2 6 10 4 3 5 8 6 19 12 9 6 12 10 12 6 17 14 23 19 13 24 20
15 16 16 16 18 17 18 17 16 16 15 15 16 17 19 2 1 1 12 14 16 8 2 2 5 4 6 6 5 16 10 7 12 11 1 5 11 12 7 11 19 16 11 18 21
16 15 17 17 17 17 18 18 17 16 15 15 15 14 4 2 8 5 8 14 13 10 9 7 7 6 5 7 3 10 6 7 6 6 12 7 6 9 14 18 16 13 8 12 16
17 17 17 18 17 18 18 18 18 17 14 14 14 15 1 2 2 10 8 7 10 11 11 13 11 11 4 2 2 8 11 7 4 2 6 17 6 6 14 18 16 14 8 8 9
18 18 17 17 18 19 19 18 20 18 14 12 11 4 2 13 2 6 9 7 4 7 4 7 5 6 1 7 7 7 6 7 3 2 3 7 6 14 16 18 17 13 10 9 9
19 18 18 19 19 19 20 20 20 18 14 8 3 1 8 7 4 4 4 8 9 10 7 11 4 4 4 6 4 3 5 3 4 4 4 2 4 12 18 18 16 16 13 12 10
19 18 19 19 19 19 20 23 20 15 7 4 0 1 10 11 4 7 8 7 7 8 9 8 1 2 5 7 2 4 5 4 2 9 5 3 6 13 18 17 16 16 15 13 10
19 18 18 18 17 18 24 15 10 10 4 4 4 3 6 8 4 5 5 6 4 8 10 8 7 3 5 6 6 8 4 3 7 8 8 6 7 18 18 18 17 16 14 12 10
19 18 19 18 17 14 13 5 5 4 1 9 7 6 5 3 1 3 6 3 3 4 4 6 7 7 14 7 10 7 10 10 4 6 4 6 10 19 19 16 16 13 14 12 13
20 18 19 19 17 15 2 1 7 4 8 11 12 9 11 3 6 8 6 5 3 7 5 7 7 18 9 11 3 8 8 4 2 5 4 7 12 16 18 19 20 19 15 16 12
21 20 21 22 23 0 3 9 5 11 1 9 8 7 8 8 7 9 7 5 6 4 6 5 15 11 6 1 5 4 5 6 8 7 6 5 5 8 14 13 15 16 16 15 17
22 22 22 29 2 4 5 5 8 6 5 10 6 9 4 7 6 9 9 9 3 11 10 8 9 8 3 2 6 4 1 3 4 7 6 8 6 6 11 17 16 16 16 17 17
21 21 21 10 5 3 5 12 12 5 3 4 4 2 8 9 2 3 5 4 10 11 5 10 5 6 1 6 4 9 1 2 1 2 3 4 5 7 8 13 16 17 18 18 12
19 17 19 3 2 9 12 14 5 8 7 3 7 6 7 3 5 4 5 3 5 3 2 8 5 4 6 2 1 3 4 8 5 4 2 8 7 5 10 18 6 4 9 9 10
23 15 10 4 6 5 9 6 7 4 6 5 7 7 9 7 5 5 3 7 5 3 6 8 8 5 3 2 9 9 8 6 6 6 7 2 7 9 7 7 9 13 13 14 11
25 23 6 7 5 5 5 7 4 7 6 6 3 5 10 6 8 5 5 5 3 6 3 2 10 4 3 8 8 2 9 7 3 3 4 4 5 4 3 6 6 15 11 10 12
23 1 3 6 9 4 6 3 9 6 3 5 3 5 5 7 6 5 9 9 11 10 9 5 8 5 7 5 10 4 2 8 5 2 4 3 3 7 4 5 4 10 14 7 12
4 5 7 6 10 6 6 7 7 4 5 6 1 5 10 9 7 8 8 8 8 13 8 6 4 4 3 2 2 8 5 4 5 3 3 5 4 7 4 5 5 7 10 7 7
3 5 6 12 5 6 5 9 7 5 7 3 2 4 7 5 8 8 11 8 14 9 12 8 4 9 2 6 9 2 2 3 5 5 7 4 6 7 10 10 9 7 9 8 3
4 4 5 9 5 2 3 6 4 6 3 6 5 9 6 3 3 4 11 12 12 11 10 12 7 6 13 6 4 8 4 6 7 5 1 6 7 2 9 9 9 8 8 8 7
3 5 5 5 4 2 6 7 6 11 9 6 6 5 2 3 2 7 6 15 10 10 12 9 2 2 11 9 6 4 6 6 5 4 2 7 6 4 6 7 7 8 7 9 11
2 5 6 2 2 9 5 8 7 8 11 10 9 4 4 4 4 6 4 7 11 9 9 11 5 9 9 10 4 3 6 4 7 5 3 5 7 2 5 8 6 5 6 9 8
2 6 3 4 5 7 2 5 9 7 6 2 6 7 5 3 7 4 2 8 6 9 7 8 7 6 7 6 2 6 9 7 6 8 8 7 13 9 11 12 9 7 6 9 14
1 4 6 5 5 5 6 17 17 18 5 11 4 10 6 6 9 8 3 1 6 4 4 4 3 3 3 5 5 9 13 11 8 6 7 15 9 8 9 8 7 9 10 9 8
4 4 2 6 4 4 2 10 6 9 12 17 12 8 4 9 6 8 7 6 8 5 5 8 7 5 8 4 7 8 8 9 5 4 13 9 11 9 5 10 10 9 9 9 8
Wind_Direction
350 347 343 342 341 338 336 336 337 334 332 331 328 325 327 325 313 153 228 197 193 173 121 142 182 131 151 84 251 286 315 136 186 161 153 211 115 151 127 133 149 160 118 135 146
349 347 342 340 338 335 334 332 333 332 331 331 327 323 327 333 321 243 191 142 151 169 154 168 157 151 155 179 173 213 118 225 195 143 122 124 118 132 137 146 116 130 117 141 143
348 346 342 336 336 332 330 329 330 330 330 330 326 322 321 325 329 259 127 132 166 179 153 190 118 154 198 183 181 169 99 286 141 144 173 137 116 119 131 143 150 161 154 146 153
349 343 339 336 332 331 326 326 327 328 328 328 324 320 316 260 302 192 139 134 168 188 102 212 217 166 260 224 188 92 111 193 103 84 21 154 121 137 159 162 155 158 155 146 162
344 342 336 335 332 329 324 322 322 323 323 323 322 321 330 346 252 158 153 136 152 164 195 198 206 207 247 204 202 96 108 83 95 115 85 124 108 138 142 143 149 155 161 156 178
345 342 339 334 332 327 323 319 316 315 317 319 322 319 321 278 231 148 164 163 184 179 183 178 209 216 351 355 74 174 118 114 43 33 107 113 77 129 146 145 152 160 180 190 178
342 339 337 336 331 326 322 315 309 307 307 311 315 315 310 235 259 165 172 211 210 200 234 244 259 60 285 84 338 95 86 103 142 302 11 96 64 149 152 152 157 169 185 203 217
340 338 337 335 331 326 318 309 302 297 294 296 319 332 249 255 195 197 196 287 258 257 229 265 231 170 143 109 103 112 92 107 141 175 129 58 167 154 162 159 168 177 190 201 224
339 333 335 334 331 324 315 306 297 286 261 227 38 141 268 311 227 217 181 241 293 307 302 278 37 254 104 126 10 234 157 179 161 185 143 173 130 181 169 167 178 183 193 198 211
339 333 331 332 331 326 317 294 284 309 162 194 254 333 274 230 209 213 230 247 266 322 343 16 30 12 351 81 223 202 174 132 193 193 183 181 196 172 179 174 186 189 192 194 190
340 331 330 328 328 334 345 4 19 3 15 196 203 238 295 264 84 245 221 222 310 1 294 346 31 286 278 243 227 199 138 164 211 208 136 183 160 180 185 184 187 198 192 188 186
337 331 329 324 320 322 290 206 218 140 302 227 236 256 277 87 312 226 106 146 193 244 317 347 273 265 234 251 354 49 92 155 52 199 159 165 189 186 185 193 189 189 192 188 176
338 334 330 324 316 177 202 238 302 31 336 286 198 210 229 135 213 231 121 196 199 267 271 195 256 309 222 7 24 3 140 175 179 160 258 94 330 189 207 198 193 197 191 189 178
339 339 338 329 349 328 258 286 310 142 46 273 196 256 186 184 261 216 183 163 183 227 248 234 280 211 186 247 117 4 72 80 72 120 205 169 236 217 202 202 197 194 193 196 187
334 334 333 323 291 283 262 325 307 68 15 239 198 218 159 159 219 271 165 113 222 243 57 262 345 325 156 227 131 226 171 122 265 70 60 340 88 269 150 212 207 201 199 197 192
319 321 334 110 227 249 307 302 46 52 259 233 149 183 125 223 238 333 162 172 213 230 271 245 266 230 211 302 41 255 33 34 47 98 35 217 132 286 186 202 163 141 125 128 123
314 312 313 290 239 344 326 34 52 158 298 208 185 160 167 196 259 156 232 159 173 69 308 336 287 277 192 5 353 64 50 354 346 8 220 224 78 226 229 204 143 137 119 142 131
313 312 220 211 240 353 20 56 189 226 247 306 120 96 174 171 237 190 173 185 258 106 79 190 321 174 251 165 190 135 138 155 264 163 222 348 143 243 183 109 96 106 149 165 183
316 330 257 244 198 117 76 109 212 223 306 10 358 104 261 217 182 138 181 198 204 168 167 166 269 268 204 175 129 264 149 193 155 85 79 289 344 30 79 78 75 84 121 144 199
334 332 253 155 144 87 84 226 231 236 17 30 306 160 199 211 163 148 188 202 226 190 158 227 274 262 243 81 240 152 187 18 6 145 84 343 306 173 147 129 102 94 114 144 191
14 342 266 126 99 59 177 234 278 290 358 17 269 244 224 191 205 182 210 249 209 206 169 164 101 284 32 191 196 335 7 63 122 135 142 147 264 208 168 157 126 106 99 119 144
351 321 300 133 88 170 199 209 301 308 348 278 261 208 207 193 292 182 215 206 189 176 165 197 158 207 218 273 162 168 199 142 116 271 45 130 256 268 160 141 135 133 116 117 134
340 266 296 124 135 258 272 266 234 266 262 263 311 326 272 168 259 189 232 235 213 149 178 169 250 4 344 349 339 195 227 139 111 76 198 123 250 347 130 128 135 141 129 119 130
0 331 312 88 219 158 212 260 260 263 260 233 245 246 310 354 187 279 304 295 208 185 163 112 124 152 189 213 171 301 250 130 117 92 177 208 140 190 147 142 158 157 159 107 128
150 260 237 298 323 327 200 275 282 291 255 257 286 208 214 269 334 262 317 317 342 148 132 117 159 164 209 217 216 256 224 183 143 168 128 179 153 199 179 164 172 163 144 123 124
5 11 337 280 273 291 246 240 248 266 224 291 240 253 215 194 188 287 282 25 238 274 109 17 193 145 258 299 13 297 209 181 167 175 137 154 175 193 182 141 151 150 118 113 137
314 330 111 275 323 342 331 315 277 275 260 237 251 276 267 246 238 209 208 189 234 206 170 134 131 91 259 38 9 333 231 175 175 167 150 160 205 144 161 161 162 156 140 141 136